Time,TemperatureF,DewpointF,PressureIn,WindDirection,WindDirectionDegrees,WindSpeedMPH,WindSpeedGustMPH,Humidity,HourlyPrecipIn,Conditions,Clouds,dailyrainin,SoftwareType,DateUTC
2013-04-28 00:00:00,75.5,65.0,30.13,ENE,70,7.0,10.0,70,0.00,,,0.00,Wunderground v.1.15,2013-04-28 04:00:00,
2013-04-28 00:10:00,75.4,64.1,30.13,East,91,6.0,9.0,68,0.00,,,0.00,Wunderground v.1.15,2013-04-28 04:10:00,
2013-04-28 00:20:00,75.3,65.2,30.13,ENE,72,8.0,8.0,71,0.00,,,0.00,Wunderground v.1.15,2013-04-28 04:20:00,
2013-04-28 00:30:00,75.1,64.6,30.13,ENE,78,8.0,9.0,70,0.00,,,0.00,Wunderground v.1.15,2013-04-28 04:30:00,
2013-04-28 00:40:00,74.9,64.5,30.12,ENE,67,7.0,7.0,70,0.00,,,0.00,Wunderground v.1.15,2013-04-28 04:40:00,
2013-04-28 00:50:00,74.8,64.4,30.12,ESE,104,7.0,7.0,70,0.00,,,0.00,Wunderground v.1.15,2013-04-28 04:50:00,
2013-04-28 01:00:00,74.8,63.9,30.11,ESE,118,7.0,10.0,69,0.00,,,0.00,Wunderground v.1.15,2013-04-28 05:00:00,
2013-04-28 01:10:00,74.7,63.4,30.11,ESE,103,7.0,7.0,68,0.00,,,0.00,Wunderground v.1.15,2013-04-28 05:10:00,
2013-04-28 01:20:00,74.6,63.3,30.11,East,89,7.0,11.0,68,0.00,,,0.00,Wunderground v.1.15,2013-04-28 05:20:00,
2013-04-28 01:30:00,74.5,63.7,30.11,ENE,77,7.0,7.0,69,0.00,,,0.00,Wunderground v.1.15,2013-04-28 05:30:00,
2013-04-28 01:40:00,74.4,64.0,30.11,East,96,7.0,11.0,70,0.00,,,0.00,Wunderground v.1.15,2013-04-28 05:40:00,
2013-04-28 01:50:00,74.4,63.6,30.11,East,85,8.0,8.0,69,0.00,,,0.00,Wunderground v.1.15,2013-04-28 05:50:00,
2013-04-28 02:00:00,74.2,63.8,30.10,East,90,7.0,10.0,70,0.00,,,0.00,Wunderground v.1.15,2013-04-28 06:00:00,
2013-04-28 02:10:00,74.2,63.8,30.10,ESE,122,7.0,7.0,70,0.00,,,0.00,Wunderground v.1.15,2013-04-28 06:10:00,
2013-04-28 02:20:00,74.1,64.1,30.10,ESE,103,7.0,7.0,71,0.00,,,0.00,Wunderground v.1.15,2013-04-28 06:20:00,
2013-04-28 02:30:00,74.0,64.4,30.10,ENE,72,6.0,6.0,72,0.00,,,0.00,Wunderground v.1.15,2013-04-28 06:30:00,
2013-04-28 02:40:00,74.0,64.4,30.09,SE,127,7.0,7.0,72,0.00,,,0.00,Wunderground v.1.15,2013-04-28 06:40:00,
2013-04-28 02:50:00,73.9,64.7,30.09,East,86,7.0,8.0,73,0.00,,,0.00,Wunderground v.1.15,2013-04-28 06:50:00,
2013-04-28 03:00:00,73.8,65.0,30.09,East,89,7.0,7.0,74,0.00,,,0.00,Wunderground v.1.15,2013-04-28 07:00:00,
2013-04-28 03:10:00,73.6,64.8,30.09,SE,146,6.0,6.0,74,0.00,,,0.00,Wunderground v.1.15,2013-04-28 07:10:00,
2013-04-28 03:20:00,73.6,65.2,30.09,ENE,78,6.0,6.0,75,0.00,,,0.00,Wunderground v.1.15,2013-04-28 07:20:00,
2013-04-28 03:30:00,73.6,65.2,30.08,ESE,109,6.0,7.0,75,0.00,,,0.00,Wunderground v.1.15,2013-04-28 07:30:00,
2013-04-28 03:40:00,73.6,65.6,30.08,ESE,105,6.0,6.0,76,0.00,,,0.00,Wunderground v.1.15,2013-04-28 07:40:00,
2013-04-28 03:50:00,73.6,65.6,30.08,East,94,5.0,15.0,76,0.00,,,0.00,Wunderground v.1.15,2013-04-28 07:50:00,
2013-04-28 04:00:00,73.6,65.9,30.07,ENE,57,6.0,6.0,77,0.00,,,0.00,Wunderground v.1.15,2013-04-28 08:00:00,
2013-04-28 04:10:00,73.6,65.9,30.07,ENE,65,5.0,8.0,77,0.00,,,0.00,Wunderground v.1.15,2013-04-28 08:10:00,
2013-04-28 04:20:00,73.6,65.9,30.07,ENE,68,5.0,5.0,77,0.00,,,0.00,Wunderground v.1.15,2013-04-28 08:20:00,
2013-04-28 04:30:00,73.6,65.9,30.07,ENE,72,6.0,6.0,77,0.00,,,0.00,Wunderground v.1.15,2013-04-28 08:30:00,
2013-04-28 04:40:00,73.6,65.6,30.07,East,98,5.0,9.0,76,0.00,,,0.00,Wunderground v.1.15,2013-04-28 08:40:00,
2013-04-28 04:50:00,73.7,65.7,30.07,ENE,63,5.0,5.0,76,0.00,,,0.00,Wunderground v.1.15,2013-04-28 08:50:00,
2013-04-28 05:00:00,73.7,65.7,30.07,ENE,64,7.0,8.0,76,0.00,,,0.00,Wunderground v.1.15,2013-04-28 09:00:00,
2013-04-28 05:10:00,73.6,65.2,30.07,East,96,6.0,6.0,75,0.00,,,0.00,Wunderground v.1.15,2013-04-28 09:10:00,
2013-04-28 05:20:00,73.6,64.4,30.06,East,84,6.0,11.0,73,0.00,,,0.00,Wunderground v.1.15,2013-04-28 09:20:00,
2013-04-28 05:30:00,73.6,64.8,30.07,ENE,60,6.0,7.0,74,0.00,,,0.00,Wunderground v.1.15,2013-04-28 09:30:00,
2013-04-28 05:40:00,73.6,65.2,30.06,ENE,76,7.0,7.0,75,0.00,,,0.00,Wunderground v.1.15,2013-04-28 09:40:00,
2013-04-28 05:50:00,73.6,65.2,30.07,East,82,7.0,7.0,75,0.00,,,0.00,Wunderground v.1.15,2013-04-28 09:50:00,
2013-04-28 06:00:00,73.6,64.8,30.07,ENE,68,7.0,7.0,74,0.00,,,0.00,Wunderground v.1.15,2013-04-28 10:00:00,
2013-04-28 06:10:00,73.5,64.3,30.07,East,86,6.0,7.0,73,0.00,,,0.00,Wunderground v.1.15,2013-04-28 10:10:00,
2013-04-28 06:20:00,73.5,64.3,30.07,East,81,6.0,6.0,73,0.00,,,0.00,Wunderground v.1.15,2013-04-28 10:20:00,
2013-04-28 06:30:00,73.6,64.8,30.08,East,79,6.0,9.0,74,0.00,,,0.00,Wunderground v.1.15,2013-04-28 10:30:00,
2013-04-28 06:40:00,73.6,64.8,30.08,ENE,71,6.0,6.0,74,0.00,,,0.00,Wunderground v.1.15,2013-04-28 10:40:00,
2013-04-28 06:50:00,73.5,64.3,30.08,ENE,68,5.0,7.0,73,0.00,,,0.00,Wunderground v.1.15,2013-04-28 10:50:00,
2013-04-28 07:00:00,73.5,64.7,30.08,ENE,72,5.0,5.0,74,0.00,,,0.00,Wunderground v.1.15,2013-04-28 11:00:00,
2013-04-28 07:10:00,73.6,64.8,30.08,East,92,6.0,9.0,74,0.00,,,0.00,Wunderground v.1.15,2013-04-28 11:10:00,
2013-04-28 07:20:00,73.8,65.0,30.08,East,94,6.0,6.0,74,0.00,,,0.00,Wunderground v.1.15,2013-04-28 11:20:00,
2013-04-28 07:30:00,74.2,64.6,30.08,East,82,6.0,6.0,72,0.00,,,0.00,Wunderground v.1.15,2013-04-28 11:30:00,
2013-04-28 07:40:00,74.7,65.1,30.08,East,89,7.0,13.0,72,0.00,,,0.00,Wunderground v.1.15,2013-04-28 11:40:00,
2013-04-28 07:50:00,74.8,64.8,30.08,ENE,74,7.0,9.0,71,0.00,,,0.00,Wunderground v.1.15,2013-04-28 11:50:00,
2013-04-28 08:00:00,75.2,64.7,30.09,East,86,7.0,15.0,70,0.00,,,0.00,Wunderground v.1.15,2013-04-28 12:00:00,
2013-04-28 08:10:00,75.5,65.4,30.09,ENE,59,8.0,8.0,71,0.00,,,0.00,Wunderground v.1.15,2013-04-28 12:10:00,
2013-04-28 08:20:00,75.8,65.3,30.09,East,85,8.0,8.0,70,0.00,,,0.00,Wunderground v.1.15,2013-04-28 12:20:00,
2013-04-28 08:30:00,75.9,65.4,30.09,East,86,7.0,7.0,70,0.00,,,0.00,Wunderground v.1.15,2013-04-28 12:30:00,
2013-04-28 08:40:00,75.9,65.4,30.10,East,96,8.0,12.0,70,0.00,,,0.00,Wunderground v.1.15,2013-04-28 12:40:00,
2013-04-28 08:50:00,75.7,65.6,30.10,East,94,7.0,7.0,71,0.00,,,0.00,Wunderground v.1.15,2013-04-28 12:50:00,
2013-04-28 09:00:00,75.8,66.1,30.10,East,100,7.0,10.0,72,0.00,,,0.00,Wunderground v.1.15,2013-04-28 13:00:00,
2013-04-28 09:10:00,75.9,66.2,30.10,ENE,76,7.0,7.0,72,0.00,,,0.00,Wunderground v.1.15,2013-04-28 13:10:00,
2013-04-28 09:20:00,75.6,66.3,30.10,SE,129,8.0,8.0,73,0.00,,,0.00,Wunderground v.1.15,2013-04-28 13:20:00,
2013-04-28 09:30:00,75.8,66.5,30.11,East,96,8.0,8.0,73,0.00,,,0.00,Wunderground v.1.15,2013-04-28 13:30:00,
2013-04-28 09:40:00,76.0,66.3,30.11,East,97,8.0,8.0,72,0.00,,,0.00,Wunderground v.1.15,2013-04-28 13:40:00,
2013-04-28 09:50:00,75.9,66.2,30.11,SE,136,7.0,7.0,72,0.00,,,0.00,Wunderground v.1.15,2013-04-28 13:50:00,
2013-04-28 10:00:00,76.3,65.4,30.11,ESE,117,7.0,9.0,69,0.00,,,0.00,Wunderground v.1.15,2013-04-28 14:00:00,
2013-04-28 10:10:00,76.3,65.8,30.12,ESE,108,6.0,8.0,70,0.00,,,0.00,Wunderground v.1.15,2013-04-28 14:10:00,
2013-04-28 10:20:00,76.7,65.8,30.11,ESE,113,6.0,6.0,69,0.00,,,0.00,Wunderground v.1.15,2013-04-28 14:20:00,
2013-04-28 10:30:00,76.6,65.2,30.12,ESE,117,7.0,7.0,68,0.00,,,0.00,Wunderground v.1.15,2013-04-28 14:30:00,
2013-04-28 10:40:00,77.4,65.1,30.11,ESE,113,8.0,8.0,66,0.00,,,0.00,Wunderground v.1.15,2013-04-28 14:40:00,
2013-04-28 10:50:00,78.1,64.9,30.12,SE,144,6.0,6.0,64,0.00,,,0.00,Wunderground v.1.15,2013-04-28 14:50:00,
2013-04-28 11:00:00,78.3,65.1,30.12,East,85,7.0,7.0,64,0.00,,,0.00,Wunderground v.1.15,2013-04-28 15:00:00,
2013-04-28 11:10:00,78.5,65.8,30.12,East,99,7.0,8.0,65,0.00,,,0.00,Wunderground v.1.15,2013-04-28 15:10:00,
2013-04-28 11:20:00,78.8,65.1,30.11,ENE,76,7.0,10.0,63,0.00,,,0.00,Wunderground v.1.15,2013-04-28 15:20:00,
2013-04-28 11:30:00,78.4,64.3,30.11,East,100,8.0,8.0,62,0.00,,,0.00,Wunderground v.1.15,2013-04-28 15:30:00,
2013-04-28 11:40:00,79.3,64.2,30.11,East,94,6.0,7.0,60,0.00,,,0.00,Wunderground v.1.15,2013-04-28 15:40:00,
2013-04-28 11:50:00,78.8,64.2,30.12,SE,127,8.0,8.0,61,0.00,,,0.00,Wunderground v.1.15,2013-04-28 15:50:00,
2013-04-28 12:00:00,79.0,65.3,30.12,East,79,7.0,8.0,63,0.00,,,0.00,Wunderground v.1.15,2013-04-28 16:00:00,
2013-04-28 12:10:00,79.0,64.4,30.12,ESE,104,7.0,8.0,61,0.00,,,0.00,Wunderground v.1.15,2013-04-28 16:10:00,
2013-04-28 12:20:00,79.4,64.3,30.11,SE,130,6.0,7.0,60,0.00,,,0.00,Wunderground v.1.15,2013-04-28 16:20:00,
2013-04-28 12:30:00,79.7,65.5,30.11,East,98,6.0,10.0,62,0.00,,,0.00,Wunderground v.1.15,2013-04-28 16:30:00,
2013-04-28 12:40:00,79.1,63.5,30.11,East,99,7.0,7.0,59,0.00,,,0.00,Wunderground v.1.15,2013-04-28 16:40:00,
2013-04-28 12:50:00,79.4,64.8,30.12,East,82,6.0,8.0,61,0.00,,,0.00,Wunderground v.1.15,2013-04-28 16:50:00,
2013-04-28 13:00:00,80.0,63.9,30.12,East,99,6.0,6.0,58,0.00,,,0.00,Wunderground v.1.15,2013-04-28 17:00:00,
2013-04-28 13:10:00,79.4,63.8,30.11,ENE,57,7.0,9.0,59,0.00,,,0.00,Wunderground v.1.15,2013-04-28 17:10:00,
2013-04-28 13:20:00,79.7,64.1,30.11,ESE,108,6.0,12.0,59,0.00,,,0.00,Wunderground v.1.15,2013-04-28 17:20:00,
2013-04-28 13:30:00,79.7,63.1,30.11,ENE,75,6.0,10.0,57,0.00,,,0.00,Wunderground v.1.15,2013-04-28 17:30:00,
2013-04-28 13:40:00,80.0,63.4,30.11,ESE,117,6.0,8.0,57,0.00,,,0.00,Wunderground v.1.15,2013-04-28 17:40:00,
2013-04-28 13:50:00,79.6,63.5,30.11,ENE,62,7.0,7.0,58,0.00,,,0.00,Wunderground v.1.15,2013-04-28 17:50:00,
2013-04-28 14:00:00,79.7,64.6,30.10,East,89,8.0,8.0,60,0.00,,,0.00,Wunderground v.1.15,2013-04-28 18:00:00,
2013-04-28 14:10:00,79.6,64.5,30.10,SE,135,7.0,7.0,60,0.00,,,0.00,Wunderground v.1.15,2013-04-28 18:10:00,
2013-04-28 14:20:00,79.7,64.6,30.09,East,84,7.0,10.0,60,0.00,,,0.00,Wunderground v.1.15,2013-04-28 18:20:00,
2013-04-28 14:30:00,79.4,64.3,30.09,East,84,7.0,7.0,60,0.00,,,0.00,Wunderground v.1.15,2013-04-28 18:30:00,
2013-04-28 14:40:00,79.8,64.7,30.08,ENE,65,6.0,6.0,60,0.00,,,0.00,Wunderground v.1.15,2013-04-28 18:40:00,
2013-04-28 14:50:00,79.8,64.7,30.08,SE,145,7.0,9.0,60,0.00,,,0.00,Wunderground v.1.15,2013-04-28 18:50:00,
2013-04-28 15:00:00,79.5,64.9,30.08,East,79,8.0,12.0,61,0.00,,,0.00,Wunderground v.1.15,2013-04-28 19:00:00,
2013-04-28 15:10:00,79.7,64.1,30.08,ESE,104,7.0,7.0,59,0.00,,,0.00,Wunderground v.1.15,2013-04-28 19:10:00,
2013-04-28 15:20:00,79.6,65.0,30.07,SE,144,7.0,7.0,61,0.00,,,0.00,Wunderground v.1.15,2013-04-28 19:20:00,
2013-04-28 15:30:00,80.1,65.4,30.06,ESE,120,7.0,7.0,61,0.00,,,0.00,Wunderground v.1.15,2013-04-28 19:30:00,
2013-04-28 15:40:00,79.5,65.3,30.06,East,82,8.0,12.0,62,0.00,,,0.00,Wunderground v.1.15,2013-04-28 19:40:00,
2013-04-28 15:50:00,79.5,65.8,30.06,East,88,8.0,12.0,63,0.00,,,0.00,Wunderground v.1.15,2013-04-28 19:50:00,
2013-04-28 16:00:00,78.6,65.4,30.05,ENE,74,9.0,10.0,64,0.00,,,0.00,Wunderground v.1.15,2013-04-28 20:00:00,
2013-04-28 16:10:00,79.1,65.4,30.05,ESE,117,6.0,10.0,63,0.00,,,0.00,Wunderground v.1.15,2013-04-28 20:10:00,
2013-04-28 16:20:00,79.5,65.8,30.05,ENE,78,7.0,7.0,63,0.00,,,0.00,Wunderground v.1.15,2013-04-28 20:20:00,
2013-04-28 16:30:00,79.1,65.4,30.04,SE,132,6.0,7.0,63,0.00,,,0.00,Wunderground v.1.15,2013-04-28 20:30:00,
2013-04-28 16:40:00,79.6,65.4,30.04,East,82,6.0,6.0,62,0.00,,,0.00,Wunderground v.1.15,2013-04-28 20:40:00,
2013-04-28 16:50:00,79.2,65.5,30.03,East,98,7.0,12.0,63,0.00,,,0.00,Wunderground v.1.15,2013-04-28 20:50:00,
2013-04-28 17:00:00,79.1,65.0,30.03,ESE,108,7.0,7.0,62,0.00,,,0.00,Wunderground v.1.15,2013-04-28 21:00:00,
2013-04-28 17:10:00,79.2,65.1,30.03,SE,132,6.0,8.0,62,0.00,,,0.00,Wunderground v.1.15,2013-04-28 21:10:00,
2013-04-28 17:20:00,79.1,64.5,30.03,ENE,74,8.0,8.0,61,0.00,,,0.00,Wunderground v.1.15,2013-04-28 21:20:00,
2013-04-28 17:30:00,79.2,64.6,30.03,ESE,103,6.0,13.0,61,0.00,,,0.00,Wunderground v.1.15,2013-04-28 21:30:00,
2013-04-28 17:40:00,78.8,64.7,30.02,NE,53,7.0,7.0,62,0.00,,,0.00,Wunderground v.1.15,2013-04-28 21:40:00,
2013-04-28 17:50:00,78.3,64.2,30.02,East,79,8.0,8.0,62,0.00,,,0.00,Wunderground v.1.15,2013-04-28 21:50:00,
2013-04-28 18:00:00,78.7,63.6,30.02,ENE,75,6.0,9.0,60,0.00,,,0.00,Wunderground v.1.15,2013-04-28 22:00:00,
2013-04-28 18:10:00,78.7,64.6,30.01,ESE,103,6.0,11.0,62,0.00,,,0.00,Wunderground v.1.15,2013-04-28 22:10:00,
2013-04-28 18:20:00,78.0,63.9,30.01,East,86,7.0,9.0,62,0.00,,,0.00,Wunderground v.1.15,2013-04-28 22:20:00,
2013-04-28 18:30:00,78.2,64.1,30.01,ESE,110,6.0,7.0,62,0.00,,,0.00,Wunderground v.1.15,2013-04-28 22:30:00,
2013-04-28 18:40:00,78.0,64.8,30.01,ESE,104,6.0,7.0,64,0.00,,,0.00,Wunderground v.1.15,2013-04-28 22:40:00,
2013-04-28 18:50:00,77.8,63.3,30.01,East,99,6.0,7.0,61,0.00,,,0.00,Wunderground v.1.15,2013-04-28 22:50:00,
2013-04-28 19:00:00,77.5,63.0,30.01,East,88,7.0,7.0,61,0.00,,,0.00,Wunderground v.1.15,2013-04-28 23:00:00,
2013-04-28 19:10:00,77.4,63.4,30.01,ESE,117,6.0,7.0,62,0.00,,,0.00,Wunderground v.1.15,2013-04-28 23:10:00,
2013-04-28 19:20:00,77.3,63.7,30.01,ENE,70,7.0,10.0,63,0.00,,,0.00,Wunderground v.1.15,2013-04-28 23:20:00,
2013-04-28 19:30:00,77.2,63.2,30.01,SE,134,5.0,5.0,62,0.00,,,0.00,Wunderground v.1.15,2013-04-28 23:30:00,
2013-04-28 19:40:00,76.8,64.1,30.02,East,79,6.0,6.0,65,0.00,,,0.00,Wunderground v.1.15,2013-04-28 23:40:00,
2013-04-28 19:50:00,76.4,63.3,30.02,ESE,113,6.0,6.0,64,0.00,,,0.00,Wunderground v.1.15,2013-04-28 23:50:00,
2013-04-28 20:00:00,76.2,62.7,30.02,East,94,5.0,7.0,63,0.00,,,0.00,Wunderground v.1.15,2013-04-29 00:00:00,
2013-04-28 20:10:00,76.1,63.5,30.02,ENE,75,4.0,4.0,65,0.00,,,0.00,Wunderground v.1.15,2013-04-29 00:10:00,
2013-04-28 20:20:00,76.2,64.0,30.03,SE,127,4.0,4.0,66,0.00,,,0.00,Wunderground v.1.15,2013-04-29 00:20:00,
2013-04-28 20:30:00,76.2,63.1,30.02,ESE,113,5.0,8.0,64,0.00,,,0.00,Wunderground v.1.15,2013-04-29 00:30:00,
2013-04-28 20:40:00,76.1,63.5,30.02,ENE,77,5.0,8.0,65,0.00,,,0.00,Wunderground v.1.15,2013-04-29 00:40:00,
2013-04-28 20:50:00,76.1,63.9,30.01,ESE,113,5.0,5.0,66,0.00,,,0.00,Wunderground v.1.15,2013-04-29 00:50:00,
2013-04-28 21:00:00,76.0,64.2,30.02,East,98,4.0,5.0,67,0.00,,,0.00,Wunderground v.1.15,2013-04-29 01:00:00,
2013-04-28 21:10:00,76.0,62.9,30.03,East,101,5.0,5.0,64,0.00,,,0.00,Wunderground v.1.15,2013-04-29 01:10:00,
2013-04-28 21:20:00,76.1,63.5,30.03,ESE,107,5.0,5.0,65,0.00,,,0.00,Wunderground v.1.15,2013-04-29 01:20:00,
2013-04-28 21:30:00,76.0,63.8,30.03,ENE,70,4.0,5.0,66,0.00,,,0.00,Wunderground v.1.15,2013-04-29 01:30:00,
2013-04-28 21:40:00,76.0,63.8,30.03,East,84,5.0,5.0,66,0.00,,,0.00,Wunderground v.1.15,2013-04-29 01:40:00,
2013-04-28 21:50:00,76.0,63.8,30.03,ESE,104,5.0,8.0,66,0.00,,,0.00,Wunderground v.1.15,2013-04-29 01:50:00,
2013-04-28 22:00:00,76.0,64.2,30.04,East,89,6.0,6.0,67,0.00,,,0.00,Wunderground v.1.15,2013-04-29 02:00:00,
2013-04-28 22:10:00,76.0,63.8,30.04,East,83,5.0,5.0,66,0.00,,,0.00,Wunderground v.1.15,2013-04-29 02:10:00,
2013-04-28 22:20:00,76.0,64.7,30.04,ESE,117,4.0,4.0,68,0.00,,,0.00,Wunderground v.1.15,2013-04-29 02:20:00,
2013-04-28 22:30:00,76.0,65.1,30.04,ESE,106,4.0,7.0,69,0.00,,,0.00,Wunderground v.1.15,2013-04-29 02:30:00,
2013-04-28 22:40:00,76.1,66.4,30.04,ESE,116,5.0,5.0,72,0.00,,,0.00,Wunderground v.1.15,2013-04-29 02:40:00,
2013-04-28 22:50:00,76.1,66.0,30.03,ESE,107,6.0,6.0,71,0.00,,,0.00,Wunderground v.1.15,2013-04-29 02:50:00,
2013-04-28 23:00:00,76.1,65.2,30.03,SE,129,7.0,7.0,69,0.00,,,0.00,Wunderground v.1.15,2013-04-29 03:00:00,
2013-04-28 23:10:00,76.1,64.8,30.04,ESE,122,7.0,8.0,68,0.00,,,0.00,Wunderground v.1.15,2013-04-29 03:10:00,
2013-04-28 23:20:00,76.1,65.6,30.04,ESE,108,5.0,9.0,70,0.00,,,0.00,Wunderground v.1.15,2013-04-29 03:20:00,
2013-04-28 23:30:00,76.0,64.2,30.04,SE,136,6.0,6.0,67,0.00,,,0.00,Wunderground v.1.15,2013-04-29 03:30:00,
2013-04-28 23:40:00,76.1,63.5,30.04,East,96,6.0,6.0,65,0.00,,,0.00,Wunderground v.1.15,2013-04-29 03:40:00,
2013-04-28 23:50:00,76.1,63.5,30.04,ESE,117,6.0,6.0,65,0.00,,,0.00,Wunderground v.1.15,2013-04-29 03:50:00,